Location: Colebrook
(42.0017°N, 73.0973°W)
Time: 10:51:43
(UTC-04:00)

Vanguard 1 Rocket - All Passes

Search period start: 25 October 2021 00:00
Search period end: 04 November 2021 00:00
Orbit: 650 x 4225 km, 34.3° (Epoch: 24 October)

Date Brightness Start Highest point End Pass type
(mag) Time Alt. Az. Time Alt. Az. Time Alt. Az.
25 Oct - 08:40:47 10° SSE 08:49:11 13° SE 08:56:37 10° ESE daylight
25 Oct - 10:58:48 10° SSW 11:18:17 35° SSE 11:30:40 10° E daylight
25 Oct - 13:28:20 10° WSW 13:46:44 54° S 13:56:18 10° E daylight
25 Oct - 16:00:34 10° W 16:13:19 53° SSW 16:20:02 10° ESE daylight
25 Oct - 18:31:50 10° W 18:37:33 21° SW 18:41:38 10° S visible
26 Oct - 09:46:41 10° SSW 10:04:51 27° SE 10:17:58 10° E daylight
26 Oct - 12:13:26 10° SW 12:33:57 49° SSE 12:45:22 10° E daylight
26 Oct - 14:45:29 10° WSW 15:01:37 59° S 15:09:46 10° ESE daylight
26 Oct - 17:17:32 10° W 17:26:59 36° SSW 17:32:34 10° SE daylight
27 Oct - 08:36:59 10° S 08:51:20 19° SE 09:03:14 10° ESE daylight
27 Oct - 10:59:19 10° SW 11:20:39 42° SSE 11:33:53 10° E daylight
27 Oct - 13:30:03 10° WSW 13:49:19 59° S 13:59:13 10° E daylight
27 Oct - 16:02:51 10° W 16:15:55 50° SSW 16:22:49 10° SE daylight
27 Oct - 18:35:03 10° WSW 18:39:50 16° SW 18:43:28 10° S visible
28 Oct - 07:36:37 10° SE 07:37:57 10° SE 07:39:16 10° SE daylight
28 Oct - 09:46:27 10° SSW 10:07:02 33° SSE 10:21:34 10° E daylight
28 Oct - 12:14:47 10° SW 12:36:24 55° SSE 12:48:19 10° E daylight
28 Oct - 14:47:35 10° W 15:04:14 59° S 15:12:38 10° ESE daylight
28 Oct - 17:20:06 10° W 17:29:24 31° SW 17:35:01 10° SSE daylight
29 Oct - 08:35:26 10° S 08:53:22 25° SE 09:07:49 10° E daylight
29 Oct - 11:00:12 10° SW 11:22:57 48° SSE 11:36:55 10° E daylight
29 Oct - 13:31:55 10° WSW 13:51:52 62° S 14:02:05 10° E daylight
29 Oct - 16:05:10 10° W 16:18:26 46° SSW 16:25:30 10° SE daylight
29 Oct - 18:38:54 10° WSW 18:41:59 12° SW 18:44:34 10° SSW visible
30 Oct - 07:27:44 10° SSE 07:39:53 16° SE 07:50:57 10° ESE daylight
30 Oct - 09:46:47 10° SSW 10:09:10 40° SSE 10:24:48 10° E daylight
30 Oct - 12:16:20 10° WSW 12:38:51 60° S 12:51:11 10° E daylight
30 Oct - 14:49:44 10° W 15:06:47 58° SSW 15:15:26 10° ESE daylight
30 Oct - 17:22:48 10° W 17:31:40 26° SW 17:37:15 10° SSE daylight
31 Oct - 08:34:56 10° SSW 08:55:18 31° SE 09:11:36 10° E daylight
31 Oct - 11:01:24 10° SW 11:25:13 55° SSE 11:39:49 10° E daylight
31 Oct - 13:33:53 10° WSW 13:54:23 64° S 14:04:56 10° ESE daylight
31 Oct - 16:07:30 10° W 16:20:49 42° SSW 16:28:03 10° SE daylight
01 Nov - 07:25:21 10° S 07:41:39 21° SE 07:56:22 10° E daylight
01 Nov - 09:47:33 10° SW 10:11:14 47° SSE 10:27:49 10° E daylight
01 Nov - 12:18:05 10° WSW 12:41:16 64° S 12:54:01 10° E daylight
01 Nov - 14:51:53 10° W 15:09:15 55° SSW 15:18:08 10° ESE daylight
01 Nov - 17:25:41 10° W 17:33:47 21° SW 17:39:12 10° S daylight
02 Nov - 06:21:33 10° SE 06:28:27 12° SE 06:35:14 10° ESE visible
02 Nov - 08:35:07 10° SSW 08:57:09 37° SE 09:14:54 10° E daylight
02 Nov - 11:02:52 10° SW 11:27:30 60° SSE 11:42:39 10° E daylight
02 Nov - 13:35:54 10° W 13:56:52 64° S 14:07:42 10° ESE daylight
02 Nov - 16:09:54 10° W 16:23:04 37° SW 16:30:28 10° SSE daylight
03 Nov - 07:24:30 10° S 07:43:20 27° SE 08:00:29 10° E daylight
03 Nov - 09:48:40 10° SW 10:13:17 53° SSE 10:30:41 10° E daylight
03 Nov - 12:19:57 10° WSW 12:43:40 66° S 12:56:49 10° E daylight
03 Nov - 14:54:03 10° W 15:11:36 52° SSW 15:20:46 10° SE daylight
03 Nov - 17:28:55 10° W 17:35:46 17° SW 17:40:42 10° SSW daylight
